EN

Hourly Weather Barra de Carrasco

Today, 18 January, Monday

Time Temperature Precipitation Wind Pressure Humidity
00:00 +21°C° 0 mm 6 mps 757 mmHg 63%
01:00 +20°C° 0 mm 6 mps 757 mmHg 64%
02:00 +20°C° 0 mm 5 mps 757 mmHg 65%
03:00 +20°C° 0 mm 5 mps 757 mmHg 65%
04:00 +19°C° 0 mm 5 mps 758 mmHg 66%
05:00 +19°C° 0 mm 4 mps 758 mmHg 67%
06:00 +20°C° 0 mm 4 mps 758 mmHg 61%
07:00 +21°C° 0 mm 4 mps 759 mmHg 56%
08:00 +23°C° 0 mm 4 mps 759 mmHg 50%
09:00 +25°C° 0 mm 4 mps 760 mmHg 46%
10:00 +26°C° 0 mm 4 mps 760 mmHg 42%
11:00 +27°C° 0 mm 4 mps 760 mmHg 39%
12:00 +27°C° 0 mm 4 mps 760 mmHg 36%
13:00 +28°C° 0 mm 3 mps 760 mmHg 34%
14:00 +28°C° 0 mm 3 mps 760 mmHg 32%
15:00 +28°C° 0 mm 3 mps 760 mmHg 33%
16:00 +27°C° 0 mm 3 mps 760 mmHg 33%
17:00 +27°C° 0 mm 3 mps 760 mmHg 34%
18:00 +25°C° 0 mm 3 mps 760 mmHg 39%
19:00 +23°C° 0 mm 4 mps 760 mmHg 45%
20:00 +21°C° 0 mm 4 mps 760 mmHg 50%
21:00 +21°C° 0 mm 4 mps 760 mmHg 50%
22:00 +20°C° 0 mm 5 mps 760 mmHg 50%
23:00 +20°C° 0 mm 5 mps 760 mmHg 50%

Tomorrow, 19 January, Tuesday

Time Temperature Precipitation Wind Pressure Humidity
00:00 +19°C° 0 mm 6 mps 760 mmHg 55%
01:00 +19°C° 0 mm 6 mps 760 mmHg 60%
02:00 +17°C° 0 mm 6 mps 760 mmHg 66%
03:00 +17°C° 0 mm 6 mps 760 mmHg 66%
04:00 +17°C° 0 mm 5 mps 761 mmHg 67%
05:00 +16°C° 0 mm 5 mps 761 mmHg 68%
06:00 +19°C° 0 mm 5 mps 761 mmHg 63%
07:00 +21°C° 0 mm 4 mps 762 mmHg 59%
08:00 +23°C° 0 mm 4 mps 763 mmHg 54%
09:00 +27°C° 0 mm 3 mps 762 mmHg 46%
10:00 +29°C° 0 mm 3 mps 762 mmHg 38%
11:00 +32°C° 0 mm 2 mps 762 mmHg 30%
12:00 +34°C° 0 mm 2 mps 762 mmHg 28%
13:00 +35°C° 0 mm 2 mps 762 mmHg 27%
14:00 +36°C° 0 mm 2 mps 761 mmHg 25%
15:00 +35°C° 0 mm 2 mps 761 mmHg 28%
16:00 +34°C° 0 mm 3 mps 761 mmHg 31%
17:00 +33°C° 0 mm 3 mps 760 mmHg 35%
18:00 +30°C° 0 mm 4 mps 761 mmHg 37%
19:00 +28°C° 0 mm 4 mps 761 mmHg 40%
20:00 +27°C° 0 mm 5 mps 761 mmHg 43%
21:00 +26°C° 0 mm 5 mps 762 mmHg 48%
22:00 +25°C° 0 mm 5 mps 762 mmHg 53%
23:00 +23°C° 0 mm 5 mps 762 mmHg 58%

Day after tomorrow, 20 January, Wednesday

Time Temperature Precipitation Wind Pressure Humidity
00:00 +22°C° 0 mm 4 mps 762 mmHg 60%
01:00 +22°C° 0 mm 4 mps 762 mmHg 61%
02:00 +21°C° 0 mm 4 mps 762 mmHg 63%
03:00 +20°C° 0 mm 4 mps 762 mmHg 65%
04:00 +20°C° 0 mm 4 mps 762 mmHg 67%
05:00 +19°C° 0 mm 4 mps 763 mmHg 69%
06:00 +21°C° 0 mm 3 mps 763 mmHg 61%
07:00 +24°C° 0 mm 3 mps 763 mmHg 54%
08:00 +26°C° 0 mm 3 mps 764 mmHg 46%
09:00 +28°C° 0 mm 3 mps 764 mmHg 39%
10:00 +31°C° 0 mm 3 mps 764 mmHg 32%
11:00 +34°C° 0 mm 3 mps 764 mmHg 26%
12:00 +33°C° 0 mm 4 mps 763 mmHg 29%
13:00 +33°C° 0 mm 6 mps 763 mmHg 33%
14:00 +32°C° 0 mm 8 mps 763 mmHg 37%
15:00 +32°C° 0 mm 8 mps 763 mmHg 38%
16:00 +31°C° 0 mm 8 mps 762 mmHg 39%
17:00 +31°C° 0 mm 8 mps 762 mmHg 40%
18:00 +29°C° 0 mm 8 mps 763 mmHg 42%
19:00 +28°C° 0 mm 7 mps 763 mmHg 44%
20:00 +27°C° 0 mm 7 mps 763 mmHg 46%
21:00 +24°C° 0 mm 7 mps 763 mmHg 52%
22:00 +23°C° 0 mm 6 mps 764 mmHg 58%
23:00 +22°C° 0 mm 6 mps 764 mmHg 65%

21 January, Thursday

Time Temperature Precipitation Wind Pressure Humidity
00:00 +21°C° 0 mm 5 mps 764 mmHg 69%
01:00 +21°C° 0 mm 5 mps 764 mmHg 73%
02:00 +20°C° 0 mm 5 mps 763 mmHg 77%
03:00 +20°C° 0 mm 4 mps 764 mmHg 78%
04:00 +19°C° 0 mm 4 mps 764 mmHg 80%
05:00 +19°C° 0 mm 4 mps 764 mmHg 82%
06:00 +21°C° 0 mm 4 mps 764 mmHg 73%
07:00 +24°C° 0 mm 3 mps 765 mmHg 64%
08:00 +26°C° 0 mm 3 mps 765 mmHg 55%
09:00 +28°C° 0 mm 4 mps 765 mmHg 47%
10:00 +30°C° 0 mm 4 mps 765 mmHg 39%
11:00 +34°C° 0 mm 5 mps 764 mmHg 32%
12:00 +33°C° 0 mm 6 mps 764 mmHg 35%
13:00 +33°C° 0 mm 7 mps 764 mmHg 39%
14:00 +33°C° 0 mm 8 mps 764 mmHg 42%
15:00 +33°C° 0 mm 8 mps 763 mmHg 39%
16:00 +34°C° 0 mm 9 mps 763 mmHg 35%
17:00 +34°C° 0 mm 10 mps 763 mmHg 31%
18:00 +32°C° 0 mm 9 mps 763 mmHg 35%
19:00 +31°C° 0 mm 8 mps 763 mmHg 38%
20:00 +28°C° 0 mm 8 mps 763 mmHg 41%
21:00 +26°C° 0 mm 8 mps 764 mmHg 51%
22:00 +23°C° 0 mm 7 mps 764 mmHg 60%
23:00 +22°C° 0 mm 7 mps 764 mmHg 70%

22 January, Friday

Time Temperature Precipitation Wind Pressure Humidity
00:00 +21°C° 0 mm 7 mps 764 mmHg 74%
01:00 +21°C° 0 mm 6 mps 764 mmHg 78%
02:00 +20°C° 0 mm 6 mps 764 mmHg 82%
03:00 +20°C° 0 mm 6 mps 764 mmHg 83%
04:00 +19°C° 0 mm 6 mps 764 mmHg 84%
05:00 +19°C° 0 mm 6 mps 764 mmHg 85%
06:00 +21°C° 0 mm 6 mps 764 mmHg 77%
07:00 +23°C° 0 mm 6 mps 764 mmHg 68%
08:00 +26°C° 0 mm 6 mps 764 mmHg 59%
09:00 +28°C° 0 mm 6 mps 764 mmHg 51%
10:00 +30°C° 0 mm 6 mps 764 mmHg 42%
11:00 +33°C° 0 mm 6 mps 763 mmHg 33%
12:00 +34°C° 0 mm 7 mps 763 mmHg 32%
13:00 +35°C° 0 mm 7 mps 762 mmHg 30%
14:00 +37°C° 0 mm 8 mps 761 mmHg 29%
15:00 +37°C° 0 mm 8 mps 761 mmHg 32%
16:00 +35°C° 0 mm 8 mps 760 mmHg 35%
17:00 +35°C° 0 mm 8 mps 760 mmHg 38%
18:00 +33°C° 0 mm 8 mps 760 mmHg 46%
19:00 +31°C° 0 mm 8 mps 760 mmHg 55%
20:00 +28°C° 0 mm 8 mps 760 mmHg 64%
21:00 +27°C° 0 mm 8 mps 760 mmHg 68%
22:00 +27°C° 0 mm 8 mps 760 mmHg 72%
23:00 +26°C° 0 mm 7 mps 761 mmHg 76%

23 January, Saturday

Time Temperature Precipitation Wind Pressure Humidity
00:00 +24°C° 0 mm 7 mps 760 mmHg 77%
01:00 +24°C° 0 mm 7 mps 760 mmHg 78%
02:00 +24°C° 0 mm 6 mps 759 mmHg 79%
03:00 +24°C° 0 mm 7 mps 759 mmHg 80%
04:00 +23°C° 0 mm 7 mps 759 mmHg 80%
05:00 +23°C° 0 mm 7 mps 759 mmHg 81%
06:00 +26°C° 0 mm 7 mps 759 mmHg 75%
07:00 +27°C° 0 mm 7 mps 759 mmHg 69%
08:00 +29°C° 0 mm 6 mps 759 mmHg 64%
09:00 +32°C° 0 mm 6 mps 759 mmHg 56%
10:00 +34°C° 0 mm 5 mps 759 mmHg 48%
11:00 +36°C° 0 mm 5 mps 758 mmHg 40%
12:00 +36°C° 0 mm 5 mps 758 mmHg 40%
13:00 +37°C° 0 mm 4 mps 757 mmHg 39%
14:00 +37°C° 0 mm 4 mps 757 mmHg 39%
15:00 +36°C° 0 mm 4 mps 756 mmHg 39%
16:00 +36°C° 0 mm 5 mps 755 mmHg 40%
17:00 +36°C° 0 mm 5 mps 755 mmHg 41%
18:00 +34°C° 1.2 mm 5 mps 755 mmHg 51%
19:00 +30°C° 1.2 mm 6 mps 756 mmHg 61%
20:00 +28°C° 1.2 mm 6 mps 756 mmHg 72%
21:00 +27°C° 6.4 mm 5 mps 756 mmHg 75%
22:00 +26°C° 6.4 mm 4 mps 757 mmHg 79%
23:00 +25°C° 6.4 mm 3 mps 757 mmHg 83%
Show more

We Need Your Consent

Meteoprog and our Service Providers may store and access personal data such as cookies, device identifiers or other similar technologies on your device and process such data to personalise content and ads, as well as provide social media features and to analyse the traffic.

  • Store and/or access information on your device

    Cookies, device identifiers or other information can be stored or accessed on your device for the purposes indicated above.

  • Personalised ads and content, ad and content measurement, audience insights, and products development

    Ads and content can be personalised based on a profile. More data can be added to better personalise ads and content. Ad and content performance can be measured. Insights about the audience who saw the ads and content can be derived. Such data can be used to develop or improve user’s experience, systems and software.

By clicking ‘I Agree’ you will allow the use of indicated cookies, device identifiers, web beacons or other similar technologies. Your settings can be changed in the browser on your device.

For certain purposes, legitimate interests may be relied on, rather than consent. You can read more about this in our Privacy and Cookie Policy.